Погода в Силвассе

Индия     20°16′50″N   73°00′03″E
темп.,
°C
ветер,
м/с
пор.,
м/с
влажн.,
%
обл.,
%
осадки,
мм/ч
давл.,
гПа
погр.,
м
16 октября, сб
сб1623:30+25всв226025 0.0 100520
02:30+24всв225570 0.0 100317
05:30+23всв115381 0.0 100317
08:30+26ссв115899 0.0 100599
11:30+30с224887 0.0 1005554
14:30+31с334619 0.0 1002970
17:30+28с23685 0.0 100370
20:30+25ссв127110 0.0 100519
17 октября, вс
вс1723:30+25св226799 0.0 100420
02:30+26св1264100 0.0 100322
05:30+25ссз1166100 0.0 100314
08:30+26с126986 0.0 1006106
11:30+29ссв115998 0.0 1006427
14:30+31ссз345356 0.0 10021003
17:30+27сз347161 0.0 1003105
20:30+25ю007499 0.0 100625
18 октября, пн
пн1823:30+24ю117610 0.0 100516
02:30+24ю118118 0.0 100515
05:30+23ююв228399 0.0 100620
08:30+26ююв127724 0.0 1008186
11:30+30з22626 0.0 10081180
14:30+30зсз445624 0.1 10051359
17:30+27з35725 0.1 1007148
20:30+23ююз2273100 0.0 100930
19 октября, вт
вт1923:30+23ююв227733 0.0 101036
02:30+22ююв22825 0.0 100940
05:30+22ююв2286100 0.0 101043
08:30+25ююв117928 0.0 1012198
11:30+29зсз23602 0.0 10111279
14:30+30зсз43540 0.0 10091471
17:30+26зсз35720 0.0 1009131
20:30+23ююв11730 0.0 101116
20 октября, ср
ср2023:30+22ююв11765 0.0 101218
02:30+22ю117817 0.0 101116
05:30+21вюв11815 0.0 101118
08:30+24вюв117510 0.0 1013145
11:30+29сз11595 0.0 1013971
14:30+30сз225071 0.0 10111848
17:30+26сз35735 0.0 1011162
20:30+23св117423 0.0 101313